Airport Information

KACV - Arcata Airport

KACV 191753Z AUTO 27006KT 7SM CLR 15/11 A3007 RMK AO2 SLP186 T01500106 10156 20067 58004


  • General Information

  • Coordinates: N 40°58'41"/ W 124°6'30"
  • Location: N/A
  • Surveyed Elevation: 221 MSL

Operations

Flow Name Active Runways Conditions

Green background denotes normal operations.


Common Frequencies

Callsign Frequency Position Name

More at the Document Center


Charts